owner,sensor,date,latitude,longitude,sea_surface_height_above_sea_level,qcFlag 
TCOON,ioos:station:TCOON:003:1,2014-01-01T00:06:00Z,26.8015,-97.4706,0.919,1111122 
TCOON,ioos:station:TCOON:003:1,2014-01-01T00:36:00Z,26.8015,-97.4706,0.908,1111122 
TCOON,ioos:station:TCOON:003:1,2014-01-01T01:06:00Z,26.8015,-97.4706,0.914,1111122 
TCOON,ioos:station:TCOON:003:1,2014-01-01T01:36:00Z,26.8015,-97.4706,0.953,1111122 
TCOON,ioos:station:TCOON:003:1,2014-01-01T02:06:00Z,26.8015,-97.4706,0.994,1111122 
TCOON,ioos:station:TCOON:003:1,2014-01-01T02:36:00Z,26.8015,-97.4706,1.025,1111122 
TCOON,ioos:station:TCOON:003:1,2014-01-01T03:00:00Z,26.8015,-97.4706,1.034,1111122 
TCOON,ioos:station:TCOON:003:1,2014-01-01T03:36:00Z,26.8015,-97.4706,1.034,1111122 
TCOON,ioos:station:TCOON:003:1,2014-01-01T04:06:00Z,26.8015,-97.4706,1.028,1111122 
TCOON,ioos:station:TCOON:003:1,2014-01-01T04:36:00Z,26.8015,-97.4706,1.027,1111122 
TCOON,ioos:station:TCOON:003:1,2014-01-01T05:06:00Z,26.8015,-97.4706,1.033,1111122 
TCOON,ioos:station:TCOON:003:1,2014-01-01T05:36:00Z,26.8015,-97.4706,1.027,1111122 
TCOON,ioos:station:TCOON:003:1,2014-01-01T06:06:00Z,26.8015,-97.4706,1.027,1111122 
TCOON,ioos:station:TCOON:003:1,2014-01-01T06:36:00Z,26.8015,-97.4706,1.026,1111122 
TCOON,ioos:station:TCOON:003:1,2014-01-01T07:06:00Z,26.8015,-97.4706,1.025,1111122 
TCOON,ioos:station:TCOON:003:1,2014-01-01T07:36:00Z,26.8015,-97.4706,1.024,1111122 
TCOON,ioos:station:TCOON:003:1,2014-01-01T08:06:00Z,26.8015,-97.4706,1.027,1111122 
TCOON,ioos:station:TCOON:003:1,2014-01-01T08:36:00Z,26.8015,-97.4706,1.032,1111122 
TCOON,ioos:station:TCOON:003:1,2014-01-01T09:06:00Z,26.8015,-97.4706,1.034,1111122 
TCOON,ioos:station:TCOON:003:1,2014-01-01T09:36:00Z,26.8015,-97.4706,1.031,1111122 
TCOON,ioos:station:TCOON:003:1,2014-01-01T10:06:00Z,26.8015,-97.4706,1.029,1111122 
TCOON,ioos:station:TCOON:003:1,2014-01-01T10:36:00Z,26.8015,-97.4706,1.025,1111122 
TCOON,ioos:station:TCOON:003:1,2014-01-01T11:06:00Z,26.8015,-97.4706,1.024,1111122 
TCOON,ioos:station:TCOON:003:1,2014-01-01T11:36:00Z,26.8015,-97.4706,1.021,1111122 
TCOON,ioos:station:TCOON:003:1,2014-01-01T12:06:00Z,26.8015,-97.4706,1.019,1111122 
TCOON,ioos:station:TCOON:003:1,2014-01-01T12:36:00Z,26.8015,-97.4706,1.014,1111122 
TCOON,ioos:station:TCOON:003:1,2014-01-01T13:06:00Z,26.8015,-97.4706,1.008,1111122 
TCOON,ioos:station:TCOON:003:1,2014-01-01T13:36:00Z,26.8015,-97.4706,1.005,1111122 
TCOON,ioos:station:TCOON:003:1,2014-01-01T14:06:00Z,26.8015,-97.4706,1.0,1111122 
TCOON,ioos:station:TCOON:003:1,2014-01-01T14:36:00Z,26.8015,-97.4706,0.997,1111122 
TCOON,ioos:station:TCOON:003:1,2014-01-01T15:06:00Z,26.8015,-97.4706,0.991,1111122 
TCOON,ioos:station:TCOON:003:1,2014-01-01T15:36:00Z,26.8015,-97.4706,0.986,1111122 
TCOON,ioos:station:TCOON:003:1,2014-01-01T16:06:00Z,26.8015,-97.4706,0.98,1111122 
TCOON,ioos:station:TCOON:003:1,2014-01-01T16:36:00Z,26.8015,-97.4706,0.979,1111122 
TCOON,ioos:station:TCOON:003:1,2014-01-01T17:06:00Z,26.8015,-97.4706,0.978,1111122 
TCOON,ioos:station:TCOON:003:1,2014-01-01T17:36:00Z,26.8015,-97.4706,0.976,1111122 
TCOON,ioos:station:TCOON:003:1,2014-01-01T18:06:00Z,26.8015,-97.4706,0.975,1111122 
TCOON,ioos:station:TCOON:003:1,2014-01-01T18:36:00Z,26.8015,-97.4706,0.98,1111122 
TCOON,ioos:station:TCOON:003:1,2014-01-01T19:06:00Z,26.8015,-97.4706,0.987,1111122 
TCOON,ioos:station:TCOON:003:1,2014-01-01T19:36:00Z,26.8015,-97.4706,0.995,1111122 
TCOON,ioos:station:TCOON:003:1,2014-01-01T20:06:00Z,26.8015,-97.4706,0.999,1111122 
TCOON,ioos:station:TCOON:003:1,2014-01-01T20:36:00Z,26.8015,-97.4706,1.004,1111122 
TCOON,ioos:station:TCOON:003:1,2014-01-01T21:06:00Z,26.8015,-97.4706,1.006,1111122 
TCOON,ioos:station:TCOON:003:1,2014-01-01T21:36:00Z,26.8015,-97.4706,1.011,1111122 
TCOON,ioos:station:TCOON:003:1,2014-01-01T22:06:00Z,26.8015,-97.4706,1.015,1111122 
TCOON,ioos:station:TCOON:003:1,2014-01-01T22:36:00Z,26.8015,-97.4706,1.024,1111122 
TCOON,ioos:station:TCOON:003:1,2014-01-01T23:06:00Z,26.8015,-97.4706,1.03,1111122 
TCOON,ioos:station:TCOON:003:1,2014-01-01T23:36:00Z,26.8015,-97.4706,1.03,1111122 
TCOON,ioos:station:TCOON:003:1,2014-01-02T00:06:00Z,26.8015,-97.4706,1.032,1111122 
TCOON,ioos:station:TCOON:003:1,2014-01-02T00:36:00Z,26.8015,-97.4706,1.038,1111122 
TCOON,ioos:station:TCOON:003:1,2014-01-02T01:06:00Z,26.8015,-97.4706,1.042,1111122 
TCOON,ioos:station:TCOON:003:1,2014-01-02T01:36:00Z,26.8015,-97.4706,1.046,1111122 
TCOON,ioos:station:TCOON:003:1,2014-01-02T02:06:00Z,26.8015,-97.4706,1.051,1111122 
TCOON,ioos:station:TCOON:003:1,2014-01-02T02:36:00Z,26.8015,-97.4706,1.057,1111122 
TCOON,ioos:station:TCOON:003:1,2014-01-02T03:06:00Z,26.8015,-97.4706,1.061,1111122 
TCOON,ioos:station:TCOON:003:1,2014-01-02T03:36:00Z,26.8015,-97.4706,1.063,1111122 
TCOON,ioos:station:TCOON:003:1,2014-01-02T04:06:00Z,26.8015,-97.4706,1.065,1111122 
TCOON,ioos:station:TCOON:003:1,2014-01-02T04:36:00Z,26.8015,-97.4706,1.065,1111122 
TCOON,ioos:station:TCOON:003:1,2014-01-02T05:06:00Z,26.8015,-97.4706,1.066,1111122 
TCOON,ioos:station:TCOON:003:1,2014-01-02T06:00:00Z,26.8015,-97.4706,1.061,1111122 
TCOON,ioos:station:TCOON:003:1,2014-01-02T06:36:00Z,26.8015,-97.4706,1.059,1111122 
TCOON,ioos:station:TCOON:003:1,2014-01-02T07:06:00Z,26.8015,-97.4706,1.056,1111122 
TCOON,ioos:station:TCOON:003:1,2014-01-02T07:36:00Z,26.8015,-97.4706,1.056,1111122 
TCOON,ioos:station:TCOON:003:1,2014-01-02T08:06:00Z,26.8015,-97.4706,1.049,1111122 
TCOON,ioos:station:TCOON:003:1,2014-01-02T08:36:00Z,26.8015,-97.4706,1.047,1111122 
TCOON,ioos:station:TCOON:003:1,2014-01-02T09:06:00Z,26.8015,-97.4706,1.047,1111122 
TCOON,ioos:station:TCOON:003:1,2014-01-02T09:36:00Z,26.8015,-97.4706,1.049,1111122 
TCOON,ioos:station:TCOON:003:1,2014-01-02T10:06:00Z,26.8015,-97.4706,1.051,1111122 
TCOON,ioos:station:TCOON:003:1,2014-01-02T10:36:00Z,26.8015,-97.4706,1.05,1111122 
TCOON,ioos:station:TCOON:003:1,2014-01-02T11:06:00Z,26.8015,-97.4706,1.044,1111122 
TCOON,ioos:station:TCOON:003:1,2014-01-02T11:36:00Z,26.8015,-97.4706,1.034,1111122 
TCOON,ioos:station:TCOON:003:1,2014-01-02T12:06:00Z,26.8015,-97.4706,1.019,1111122 
TCOON,ioos:station:TCOON:003:1,2014-01-02T12:36:00Z,26.8015,-97.4706,1.008,1111122 
TCOON,ioos:station:TCOON:003:1,2014-01-02T13:06:00Z,26.8015,-97.4706,1.003,1111122 
TCOON,ioos:station:TCOON:003:1,2014-01-02T13:36:00Z,26.8015,-97.4706,0.998,1111122 
TCOON,ioos:station:TCOON:003:1,2014-01-02T14:06:00Z,26.8015,-97.4706,0.98,1111122 
TCOON,ioos:station:TCOON:003:1,2014-01-02T14:36:00Z,26.8015,-97.4706,0.963,1111122 
TCOON,ioos:station:TCOON:003:1,2014-01-02T15:06:00Z,26.8015,-97.4706,0.948,1111122 
TCOON,ioos:station:TCOON:003:1,2014-01-02T15:36:00Z,26.8015,-97.4706,0.924,1111122 
TCOON,ioos:station:TCOON:003:1,2014-01-02T16:06:00Z,26.8015,-97.4706,0.893,1111122 
TCOON,ioos:station:TCOON:003:1,2014-01-02T16:30:00Z,26.8015,-97.4706,0.867,1111122 
TCOON,ioos:station:TCOON:003:1,2014-01-02T17:06:00Z,26.8015,-97.4706,0.839,1111122 
TCOON,ioos:station:TCOON:003:1,2014-01-02T17:36:00Z,26.8015,-97.4706,0.817,1111122 
TCOON,ioos:station:TCOON:003:1,2014-01-02T18:06:00Z,26.8015,-97.4706,0.801,1111122 
TCOON,ioos:station:TCOON:003:1,2014-01-02T18:36:00Z,26.8015,-97.4706,0.795,1111122 
TCOON,ioos:station:TCOON:003:1,2014-01-02T19:00:00Z,26.8015,-97.4706,0.791,1111122 
TCOON,ioos:station:TCOON:003:1,2014-01-02T19:36:00Z,26.8015,-97.4706,0.797,1111122 
TCOON,ioos:station:TCOON:003:1,2014-01-02T20:06:00Z,26.8015,-97.4706,0.814,1111122 
TCOON,ioos:station:TCOON:003:1,2014-01-02T20:36:00Z,26.8015,-97.4706,0.826,1111122 
TCOON,ioos:station:TCOON:003:1,2014-01-02T21:00:00Z,26.8015,-97.4706,0.831,1111122 
TCOON,ioos:station:TCOON:003:1,2014-01-02T21:36:00Z,26.8015,-97.4706,0.833,1111122 
TCOON,ioos:station:TCOON:003:1,2014-01-02T22:36:00Z,26.8015,-97.4706,0.855,1111122 
TCOON,ioos:station:TCOON:003:1,2014-01-02T23:06:00Z,26.8015,-97.4706,0.874,1111122 
TCOON,ioos:station:TCOON:003:1,2014-01-02T23:36:00Z,26.8015,-97.4706,0.884,1111122 
TCOON,ioos:station:TCOON:003:1,2014-01-03T00:06:00Z,26.8015,-97.4706,0.901,1111122 
TCOON,ioos:station:TCOON:003:1,2014-01-03T00:36:00Z,26.8015,-97.4706,0.915,1111122 
TCOON,ioos:station:TCOON:003:1,2014-01-03T01:06:00Z,26.8015,-97.4706,0.936,1111122 
TCOON,ioos:station:TCOON:003:1,2014-01-03T01:36:00Z,26.8015,-97.4706,0.954,1111122 
TCOON,ioos:station:TCOON:003:1,2014-01-03T02:06:00Z,26.8015,-97.4706,0.967,1111122 
TCOON,ioos:station:TCOON:003:1,2014-01-03T02:36:00Z,26.8015,-97.4706,0.977,1111122 
TCOON,ioos:station:TCOON:003:1,2014-01-03T03:06:00Z,26.8015,-97.4706,0.984,1111122 
TCOON,ioos:station:TCOON:003:1,2014-01-03T03:36:00Z,26.8015,-97.4706,0.987,1111122 
TCOON,ioos:station:TCOON:003:1,2014-01-03T04:00:00Z,26.8015,-97.4706,0.984,1111122 
TCOON,ioos:station:TCOON:003:1,2014-01-03T09:54:00Z,26.8015,-97.4706,0.93,1111122 
TCOON,ioos:station:TCOON:003:1,2014-01-03T10:06:00Z,26.8015,-97.4706,0.93,1111122 
TCOON,ioos:station:TCOON:003:1,2014-01-03T10:36:00Z,26.8015,-97.4706,0.923,1111122 
TCOON,ioos:station:TCOON:003:1,2014-01-03T11:06:00Z,26.8015,-97.4706,0.919,1111122 
TCOON,ioos:station:TCOON:003:1,2014-01-03T11:36:00Z,26.8015,-97.4706,0.921,1111122 
TCOON,ioos:station:TCOON:003:1,2014-01-03T12:06:00Z,26.8015,-97.4706,0.924,1111122 
TCOON,ioos:station:TCOON:003:1,2014-01-03T12:36:00Z,26.8015,-97.4706,0.925,1111122 
TCOON,ioos:station:TCOON:003:1,2014-01-03T13:06:00Z,26.8015,-97.4706,0.925,1111122 
TCOON,ioos:station:TCOON:003:1,2014-01-03T13:36:00Z,26.8015,-97.4706,0.925,1111122 
TCOON,ioos:station:TCOON:003:1,2014-01-03T14:06:00Z,26.8015,-97.4706,0.926,1111122 
TCOON,ioos:station:TCOON:003:1,2014-01-03T14:36:00Z,26.8015,-97.4706,0.921,1111122 
TCOON,ioos:station:TCOON:003:1,2014-01-03T15:06:00Z,26.8015,-97.4706,0.923,1111122 
TCOON,ioos:station:TCOON:003:1,2014-01-03T15:36:00Z,26.8015,-97.4706,0.929,1111122 
TCOON,ioos:station:TCOON:003:1,2014-01-03T16:06:00Z,26.8015,-97.4706,0.936,1111122 
TCOON,ioos:station:TCOON:003:1,2014-01-03T16:36:00Z,26.8015,-97.4706,0.94,1111122 
TCOON,ioos:station:TCOON:003:1,2014-01-03T17:06:00Z,26.8015,-97.4706,0.941,1111122 
TCOON,ioos:station:TCOON:003:1,2014-01-03T17:36:00Z,26.8015,-97.4706,0.941,1111122 
TCOON,ioos:station:TCOON:003:1,2014-01-03T18:06:00Z,26.8015,-97.4706,0.942,1111122 
TCOON,ioos:station:TCOON:003:1,2014-01-03T18:36:00Z,26.8015,-97.4706,0.941,1111122 
TCOON,ioos:station:TCOON:003:1,2014-01-03T19:06:00Z,26.8015,-97.4706,0.941,1111122 
TCOON,ioos:station:TCOON:003:1,2014-01-03T19:36:00Z,26.8015,-97.4706,0.942,1111122 
TCOON,ioos:station:TCOON:003:1,2014-01-03T20:06:00Z,26.8015,-97.4706,0.944,1111122 
TCOON,ioos:station:TCOON:003:1,2014-01-03T20:36:00Z,26.8015,-97.4706,0.95,1111122 
TCOON,ioos:station:TCOON:003:1,2014-01-03T21:06:00Z,26.8015,-97.4706,0.958,1111122 
TCOON,ioos:station:TCOON:003:1,2014-01-03T21:36:00Z,26.8015,-97.4706,0.966,1111122 
TCOON,ioos:station:TCOON:003:1,2014-01-03T22:06:00Z,26.8015,-97.4706,0.972,1111122 
TCOON,ioos:station:TCOON:003:1,2014-01-03T22:36:00Z,26.8015,-97.4706,0.979,1111122 
TCOON,ioos:station:TCOON:003:1,2014-01-03T23:06:00Z,26.8015,-97.4706,0.984,1111122 
TCOON,ioos:station:TCOON:003:1,2014-01-03T23:36:00Z,26.8015,-97.4706,0.99,1111122 
TCOON,ioos:station:TCOON:003:1,2014-01-04T00:06:00Z,26.8015,-97.4706,1.003,1111122 
TCOON,ioos:station:TCOON:003:1,2014-01-04T00:36:00Z,26.8015,-97.4706,1.013,1111122 
TCOON,ioos:station:TCOON:003:1,2014-01-04T01:00:00Z,26.8015,-97.4706,1.022,1111122 
TCOON,ioos:station:TCOON:003:1,2014-01-04T01:36:00Z,26.8015,-97.4706,1.025,1111122 
TCOON,ioos:station:TCOON:003:1,2014-01-04T02:00:00Z,26.8015,-97.4706,1.024,1111122 
TCOON,ioos:station:TCOON:003:1,2014-01-04T02:36:00Z,26.8015,-97.4706,1.023,1111122 
TCOON,ioos:station:TCOON:003:1,2014-01-04T03:06:00Z,26.8015,-97.4706,1.023,1111122 
TCOON,ioos:station:TCOON:003:1,2014-01-04T03:36:00Z,26.8015,-97.4706,1.026,1111122 
TCOON,ioos:station:TCOON:003:1,2014-01-04T04:18:00Z,26.8015,-97.4706,1.034,1111122 
TCOON,ioos:station:TCOON:003:1,2014-01-04T04:36:00Z,26.8015,-97.4706,1.034,1111122 
TCOON,ioos:station:TCOON:003:1,2014-01-04T05:06:00Z,26.8015,-97.4706,1.034,1111122 
TCOON,ioos:station:TCOON:003:1,2014-01-04T05:36:00Z,26.8015,-97.4706,1.034,1111122 
TCOON,ioos:station:TCOON:003:1,2014-01-04T06:06:00Z,26.8015,-97.4706,1.036,1111122 
TCOON,ioos:station:TCOON:003:1,2014-01-04T06:36:00Z,26.8015,-97.4706,1.036,1111122 
TCOON,ioos:station:TCOON:003:1,2014-01-04T07:30:00Z,26.8015,-97.4706,1.044,1111122 
TCOON,ioos:station:TCOON:003:1,2014-01-04T08:06:00Z,26.8015,-97.4706,1.05,1111122 
TCOON,ioos:station:TCOON:003:1,2014-01-04T08:36:00Z,26.8015,-97.4706,1.055,1111122 
TCOON,ioos:station:TCOON:003:1,2014-01-04T09:06:00Z,26.8015,-97.4706,1.06,1111122 
TCOON,ioos:station:TCOON:003:1,2014-01-04T09:36:00Z,26.8015,-97.4706,1.063,1111122 
TCOON,ioos:station:TCOON:003:1,2014-01-04T10:00:00Z,26.8015,-97.4706,1.065,1111122 
TCOON,ioos:station:TCOON:003:1,2014-01-04T10:36:00Z,26.8015,-97.4706,1.066,1111122 
TCOON,ioos:station:TCOON:003:1,2014-01-04T11:06:00Z,26.8015,-97.4706,1.068,1111122 
TCOON,ioos:station:TCOON:003:1,2014-01-04T11:36:00Z,26.8015,-97.4706,1.069,1111122 
TCOON,ioos:station:TCOON:003:1,2014-01-04T12:06:00Z,26.8015,-97.4706,1.072,1111122 
TCOON,ioos:station:TCOON:003:1,2014-01-04T12:36:00Z,26.8015,-97.4706,1.071,1111122 
TCOON,ioos:station:TCOON:003:1,2014-01-04T13:06:00Z,26.8015,-97.4706,1.073,1111122 
TCOON,ioos:station:TCOON:003:1,2014-01-04T13:36:00Z,26.8015,-97.4706,1.074,1111122 
TCOON,ioos:station:TCOON:003:1,2014-01-04T14:06:00Z,26.8015,-97.4706,1.078,1111122 
TCOON,ioos:station:TCOON:003:1,2014-01-04T14:36:00Z,26.8015,-97.4706,1.078,1111122 
TCOON,ioos:station:TCOON:003:1,2014-01-04T15:06:00Z,26.8015,-97.4706,1.082,1111122 
TCOON,ioos:station:TCOON:003:1,2014-01-04T15:36:00Z,26.8015,-97.4706,1.087,1111122 
TCOON,ioos:station:TCOON:003:1,2014-01-04T16:06:00Z,26.8015,-97.4706,1.09,1111122 
TCOON,ioos:station:TCOON:003:1,2014-01-04T16:36:00Z,26.8015,-97.4706,1.092,1111122 
TCOON,ioos:station:TCOON:003:1,2014-01-04T17:06:00Z,26.8015,-97.4706,1.093,1111122 
TCOON,ioos:station:TCOON:003:1,2014-01-04T17:36:00Z,26.8015,-97.4706,1.099,1111122 
TCOON,ioos:station:TCOON:003:1,2014-01-04T18:06:00Z,26.8015,-97.4706,1.11,1111122 
TCOON,ioos:station:TCOON:003:1,2014-01-04T18:48:00Z,26.8015,-97.4706,1.11,1111122 
TCOON,ioos:station:TCOON:003:1,2014-01-04T19:06:00Z,26.8015,-97.4706,1.111,1111122 
TCOON,ioos:station:TCOON:003:1,2014-01-04T19:36:00Z,26.8015,-97.4706,1.111,1111122 
TCOON,ioos:station:TCOON:003:1,2014-01-04T20:06:00Z,26.8015,-97.4706,1.11,1111122 
TCOON,ioos:station:TCOON:003:1,2014-01-04T20:36:00Z,26.8015,-97.4706,1.119,1111122 
TCOON,ioos:station:TCOON:003:1,2014-01-04T21:06:00Z,26.8015,-97.4706,1.129,1111122 
TCOON,ioos:station:TCOON:003:1,2014-01-04T21:36:00Z,26.8015,-97.4706,1.141,1111122 
TCOON,ioos:station:TCOON:003:1,2014-01-04T22:06:00Z,26.8015,-97.4706,1.14,1111122 
TCOON,ioos:station:TCOON:003:1,2014-01-04T22:36:00Z,26.8015,-97.4706,1.142,1111122 
TCOON,ioos:station:TCOON:003:1,2014-01-04T23:06:00Z,26.8015,-97.4706,1.146,1111122 
TCOON,ioos:station:TCOON:003:1,2014-01-04T23:36:00Z,26.8015,-97.4706,1.145,1111122 
TCOON,ioos:station:TCOON:003:1,2014-01-05T00:06:00Z,26.8015,-97.4706,1.145,1111122 
TCOON,ioos:station:TCOON:003:1,2014-01-05T00:36:00Z,26.8015,-97.4706,1.149,1111122 
TCOON,ioos:station:TCOON:003:1,2014-01-05T01:06:00Z,26.8015,-97.4706,1.148,1111122 
TCOON,ioos:station:TCOON:003:1,2014-01-05T01:36:00Z,26.8015,-97.4706,1.145,1111122 
TCOON,ioos:station:TCOON:003:1,2014-01-05T02:06:00Z,26.8015,-97.4706,1.14,1111122 
TCOON,ioos:station:TCOON:003:1,2014-01-05T02:36:00Z,26.8015,-97.4706,1.137,1111122 
TCOON,ioos:station:TCOON:003:1,2014-01-05T03:06:00Z,26.8015,-97.4706,1.135,1111122 
TCOON,ioos:station:TCOON:003:1,2014-01-05T03:36:00Z,26.8015,-97.4706,1.133,1111122 
TCOON,ioos:station:TCOON:003:1,2014-01-05T04:06:00Z,26.8015,-97.4706,1.133,1111122 
TCOON,ioos:station:TCOON:003:1,2014-01-05T04:36:00Z,26.8015,-97.4706,1.134,1111122 
TCOON,ioos:station:TCOON:003:1,2014-01-05T05:06:00Z,26.8015,-97.4706,1.134,1111122 
TCOON,ioos:station:TCOON:003:1,2014-01-05T05:54:00Z,26.8015,-97.4706,1.102,1111122 
TCOON,ioos:station:TCOON:003:1,2014-01-05T06:36:00Z,26.8015,-97.4706,1.13,1111122 
TCOON,ioos:station:TCOON:003:1,2014-01-05T07:06:00Z,26.8015,-97.4706,1.127,1111122 
TCOON,ioos:station:TCOON:003:1,2014-01-05T07:30:00Z,26.8015,-97.4706,1.128,1111122 
TCOON,ioos:station:TCOON:003:1,2014-01-05T08:06:00Z,26.8015,-97.4706,1.129,1111122 
TCOON,ioos:station:TCOON:003:1,2014-01-05T08:36:00Z,26.8015,-97.4706,1.131,1111122 
TCOON,ioos:station:TCOON:003:1,2014-01-05T09:06:00Z,26.8015,-97.4706,1.136,1111122 
TCOON,ioos:station:TCOON:003:1,2014-01-05T09:36:00Z,26.8015,-97.4706,1.143,1111122 
TCOON,ioos:station:TCOON:003:1,2014-01-05T10:06:00Z,26.8015,-97.4706,1.147,1111122 
TCOON,ioos:station:TCOON:003:1,2014-01-05T10:36:00Z,26.8015,-97.4706,1.149,1111122 
TCOON,ioos:station:TCOON:003:1,2014-01-05T11:06:00Z,26.8015,-97.4706,1.153,1111122 
TCOON,ioos:station:TCOON:003:1,2014-01-05T11:36:00Z,26.8015,-97.4706,1.157,1111122 
TCOON,ioos:station:TCOON:003:1,2014-01-05T12:06:00Z,26.8015,-97.4706,1.159,1111122 
TCOON,ioos:station:TCOON:003:1,2014-01-05T12:30:00Z,26.8015,-97.4706,1.155,1111122 
TCOON,ioos:station:TCOON:003:1,2014-01-05T13:06:00Z,26.8015,-97.4706,1.145,1111122 
TCOON,ioos:station:TCOON:003:1,2014-01-05T13:36:00Z,26.8015,-97.4706,1.135,1111122 
TCOON,ioos:station:TCOON:003:1,2014-01-05T14:06:00Z,26.8015,-97.4706,1.138,1111122 
TCOON,ioos:station:TCOON:003:1,2014-01-05T14:36:00Z,26.8015,-97.4706,1.148,1111122 
TCOON,ioos:station:TCOON:003:1,2014-01-05T15:06:00Z,26.8015,-97.4706,1.153,1111122 
TCOON,ioos:station:TCOON:003:1,2014-01-05T15:36:00Z,26.8015,-97.4706,1.157,1111122 
TCOON,ioos:station:TCOON:003:1,2014-01-05T16:06:00Z,26.8015,-97.4706,1.172,1111122 
TCOON,ioos:station:TCOON:003:1,2014-01-05T16:42:00Z,26.8015,-97.4706,1.185,1111122 
TCOON,ioos:station:TCOON:003:1,2014-01-05T17:06:00Z,26.8015,-97.4706,1.196,1111122 
TCOON,ioos:station:TCOON:003:1,2014-01-05T17:36:00Z,26.8015,-97.4706,1.196,1111122 
TCOON,ioos:station:TCOON:003:1,2014-01-05T18:06:00Z,26.8015,-97.4706,1.165,1111122 
TCOON,ioos:station:TCOON:003:1,2014-01-05T18:36:00Z,26.8015,-97.4706,1.135,1111122 
TCOON,ioos:station:TCOON:003:1,2014-01-05T19:06:00Z,26.8015,-97.4706,1.111,1111122 
TCOON,ioos:station:TCOON:003:1,2014-01-05T19:36:00Z,26.8015,-97.4706,1.043,1111122 
TCOON,ioos:station:TCOON:003:1,2014-01-05T20:06:00Z,26.8015,-97.4706,0.978,1111122 
TCOON,ioos:station:TCOON:003:1,2014-01-05T20:36:00Z,26.8015,-97.4706,0.941,1111122 
TCOON,ioos:station:TCOON:003:1,2014-01-05T21:06:00Z,26.8015,-97.4706,0.911,1111122 
TCOON,ioos:station:TCOON:003:1,2014-01-05T21:36:00Z,26.8015,-97.4706,0.891,1111122 
TCOON,ioos:station:TCOON:003:1,2014-01-05T22:06:00Z,26.8015,-97.4706,0.88,1111122 
TCOON,ioos:station:TCOON:003:1,2014-01-05T22:36:00Z,26.8015,-97.4706,0.878,1111122 
TCOON,ioos:station:TCOON:003:1,2014-01-05T23:06:00Z,26.8015,-97.4706,0.882,1111122 
TCOON,ioos:station:TCOON:003:1,2014-01-05T23:36:00Z,26.8015,-97.4706,0.89,1111122 
TCOON,ioos:station:TCOON:003:1,2014-01-06T00:06:00Z,26.8015,-97.4706,0.895,1111122 
TCOON,ioos:station:TCOON:003:1,2014-01-06T00:36:00Z,26.8015,-97.4706,0.901,1111122 
TCOON,ioos:station:TCOON:003:1,2014-01-06T01:06:00Z,26.8015,-97.4706,0.909,1111122 
TCOON,ioos:station:TCOON:003:1,2014-01-06T01:36:00Z,26.8015,-97.4706,0.909,1111122 
TCOON,ioos:station:TCOON:003:1,2014-01-06T02:06:00Z,26.8015,-97.4706,0.91,1111122 
TCOON,ioos:station:TCOON:003:1,2014-01-06T02:36:00Z,26.8015,-97.4706,0.908,1111122 
TCOON,ioos:station:TCOON:003:1,2014-01-06T03:06:00Z,26.8015,-97.4706,0.912,1111122 
TCOON,ioos:station:TCOON:003:1,2014-01-06T03:36:00Z,26.8015,-97.4706,0.905,1111122 
TCOON,ioos:station:TCOON:003:1,2014-01-06T04:06:00Z,26.8015,-97.4706,0.895,1111122 
TCOON,ioos:station:TCOON:003:1,2014-01-06T04:36:00Z,26.8015,-97.4706,0.887,1111122 
TCOON,ioos:station:TCOON:003:1,2014-01-06T05:06:00Z,26.8015,-97.4706,0.881,1111122 
TCOON,ioos:station:TCOON:003:1,2014-01-06T05:54:00Z,26.8015,-97.4706,0.854,1111122 
TCOON,ioos:station:TCOON:003:1,2014-01-06T06:36:00Z,26.8015,-97.4706,0.824,1111122 
TCOON,ioos:station:TCOON:003:1,2014-01-06T07:06:00Z,26.8015,-97.4706,0.815,1111122 
TCOON,ioos:station:TCOON:003:1,2014-01-06T07:36:00Z,26.8015,-97.4706,0.806,1111122 
TCOON,ioos:station:TCOON:003:1,2014-01-06T08:00:00Z,26.8015,-97.4706,0.797,1111122 
TCOON,ioos:station:TCOON:003:1,2014-01-06T08:36:00Z,26.8015,-97.4706,0.783,1111122 
TCOON,ioos:station:TCOON:003:1,2014-01-06T09:06:00Z,26.8015,-97.4706,0.778,1111122 
TCOON,ioos:station:TCOON:003:1,2014-01-06T09:36:00Z,26.8015,-97.4706,0.775,1111122 
TCOON,ioos:station:TCOON:003:1,2014-01-06T10:06:00Z,26.8015,-97.4706,0.777,1111122 
TCOON,ioos:station:TCOON:003:1,2014-01-06T10:36:00Z,26.8015,-97.4706,0.778,1111122 
TCOON,ioos:station:TCOON:003:1,2014-01-06T11:06:00Z,26.8015,-97.4706,0.777,1111122 
TCOON,ioos:station:TCOON:003:1,2014-01-06T11:36:00Z,26.8015,-97.4706,0.777,1111122 
TCOON,ioos:station:TCOON:003:1,2014-01-06T12:06:00Z,26.8015,-97.4706,0.776,1111122 
TCOON,ioos:station:TCOON:003:1,2014-01-06T12:36:00Z,26.8015,-97.4706,0.773,1111122 
TCOON,ioos:station:TCOON:003:1,2014-01-06T13:06:00Z,26.8015,-97.4706,0.769,1111122 
TCOON,ioos:station:TCOON:003:1,2014-01-06T13:36:00Z,26.8015,-97.4706,0.764,1111122 
TCOON,ioos:station:TCOON:003:1,2014-01-06T14:06:00Z,26.8015,-97.4706,0.762,1111122 
TCOON,ioos:station:TCOON:003:1,2014-01-06T14:36:00Z,26.8015,-97.4706,0.762,1111122 
TCOON,ioos:station:TCOON:003:1,2014-01-06T15:06:00Z,26.8015,-97.4706,0.758,1111122 
TCOON,ioos:station:TCOON:003:1,2014-01-06T15:36:00Z,26.8015,-97.4706,0.756,1111122 
TCOON,ioos:station:TCOON:003:1,2014-01-06T16:06:00Z,26.8015,-97.4706,0.756,1111122 
TCOON,ioos:station:TCOON:003:1,2014-01-06T16:36:00Z,26.8015,-97.4706,0.754,1111122 
TCOON,ioos:station:TCOON:003:1,2014-01-06T17:06:00Z,26.8015,-97.4706,0.756,1111122 
TCOON,ioos:station:TCOON:003:1,2014-01-06T17:36:00Z,26.8015,-97.4706,0.753,1111122 
TCOON,ioos:station:TCOON:003:1,2014-01-06T18:06:00Z,26.8015,-97.4706,0.746,1111122 
TCOON,ioos:station:TCOON:003:1,2014-01-06T18:30:00Z,26.8015,-97.4706,0.741,1111122 
TCOON,ioos:station:TCOON:003:1,2014-01-06T19:06:00Z,26.8015,-97.4706,0.733,1111122 
TCOON,ioos:station:TCOON:003:1,2014-01-06T19:36:00Z,26.8015,-97.4706,0.734,1111122 
TCOON,ioos:station:TCOON:003:1,2014-01-06T20:06:00Z,26.8015,-97.4706,0.735,1111122 
TCOON,ioos:station:TCOON:003:1,2014-01-06T20:36:00Z,26.8015,-97.4706,0.739,1111122 
TCOON,ioos:station:TCOON:003:1,2014-01-06T21:06:00Z,26.8015,-97.4706,0.744,1111122 
TCOON,ioos:station:TCOON:003:1,2014-01-06T21:54:00Z,26.8015,-97.4706,0.754,1111122 
TCOON,ioos:station:TCOON:003:1,2014-01-06T22:06:00Z,26.8015,-97.4706,0.758,1111122 
TCOON,ioos:station:TCOON:003:1,2014-01-06T23:06:00Z,26.8015,-97.4706,0.768,1111122 
TCOON,ioos:station:TCOON:003:1,2014-01-06T23:36:00Z,26.8015,-97.4706,0.771,1111122 
TCOON,ioos:station:TCOON:003:1,2014-01-07T00:06:00Z,26.8015,-97.4706,0.775,1111122 
TCOON,ioos:station:TCOON:003:1,2014-01-07T00:36:00Z,26.8015,-97.4706,0.781,1111122 
TCOON,ioos:station:TCOON:003:1,2014-01-07T01:06:00Z,26.8015,-97.4706,0.787,1111122 
TCOON,ioos:station:TCOON:003:1,2014-01-07T01:36:00Z,26.8015,-97.4706,0.79,1111122 
TCOON,ioos:station:TCOON:003:1,2014-01-07T02:06:00Z,26.8015,-97.4706,0.793,1111122 
TCOON,ioos:station:TCOON:003:1,2014-01-07T02:36:00Z,26.8015,-97.4706,0.796,1111122 
TCOON,ioos:station:TCOON:003:1,2014-01-07T03:06:00Z,26.8015,-97.4706,0.797,1111122 
TCOON,ioos:station:TCOON:003:1,2014-01-07T03:36:00Z,26.8015,-97.4706,0.801,1111122 
TCOON,ioos:station:TCOON:003:1,2014-01-07T04:06:00Z,26.8015,-97.4706,0.81,1111122 
TCOON,ioos:station:TCOON:003:1,2014-01-07T04:36:00Z,26.8015,-97.4706,0.819,1111122 
TCOON,ioos:station:TCOON:003:1,2014-01-07T05:06:00Z,26.8015,-97.4706,0.829,1111122 
TCOON,ioos:station:TCOON:003:1,2014-01-07T05:54:00Z,26.8015,-97.4706,0.829,1111122 
TCOON,ioos:station:TCOON:003:1,2014-01-07T06:36:00Z,26.8015,-97.4706,0.821,1111122 